Theta_e
322 323 324 323 323 325 323 324 325 324 327 328 328 328 328 327 326 325 324 325 324 324 323 325 325 325 325 328 330 331 330 329
320 321 321 322 323 323 322 322 323 325 326 328 329 328 328 328 327 325 325 327 325 324 325 326 326 325 325 327 327 328 328 329
322 322 322 322 322 323 324 325 326 325 325 324 326 327 327 327 327 327 326 327 327 325 325 325 325 326 325 325 327 327 328 328
319 320 321 322 324 325 325 326 325 325 323 327 328 329 328 329 329 328 327 326 327 326 324 325 325 324 325 325 326 326 326 326
320 321 322 323 323 324 326 325 326 325 325 328 329 330 330 329 329 328 327 326 327 324 324 324 324 324 324 324 325 325 325 326
321 321 322 323 323 325 325 326 327 326 326 329 330 330 330 330 330 329 328 327 326 324 322 325 324 324 323 324 324 325 325 325
320 322 323 322 323 325 326 327 327 327 328 330 329 329 330 330 331 330 329 328 324 320 322 325 324 325 322 323 323 324 325 326
321 322 323 322 324 325 327 328 328 328 330 328 329 329 331 331 330 330 328 327 322 321 325 325 324 324 322 322 323 323 324 326
323 324 322 323 324 326 328 328 328 330 329 329 330 330 330 329 330 329 328 328 327 324 326 325 324 323 323 323 323 323 324 326
325 324 323 323 325 326 328 329 329 330 328 330 331 330 330 330 330 329 329 328 327 326 326 325 324 323 323 323 323 325 326 327
325 324 323 324 326 327 329 329 329 329 330 330 330 329 329 329 330 329 328 327 326 325 326 325 324 324 323 324 324 326 327 328
324 324 322 324 325 326 329 329 329 328 328 329 331 331 330 330 329 328 328 326 325 326 325 324 324 324 324 323 325 326 326 328
324 324 323 324 325 327 328 329 328 329 329 330 331 329 330 329 328 327 327 327 326 326 325 325 325 326 325 326 325 325 327 327
323 325 324 324 327 326 329 327 327 330 331 330 329 328 328 327 328 327 327 326 327 326 326 325 325 326 326 326 326 327 323 328
326 325 323 324 324 327 327 327 328 328 329 330 329 328 327 326 327 327 326 326 327 326 326 325 325 327 327 327 326 327 325 329
325 325 323 324 325 326 326 327 326 326 328 329 330 328 325 324 326 327 326 326 326 326 326 325 325 326 328 328 328 329 325 329
325 324 322 322 324 325 326 328 326 324 329 329 330 328 326 324 326 326 325 325 325 324 325 325 325 327 327 328 329 329 331 331
325 323 321 321 324 325 325 327 325 326 328 328 330 330 329 327 326 326 324 325 325 325 326 326 325 327 328 328 328 330 331 331
325 322 322 322 323 322 321 326 325 326 328 328 329 330 330 330 326 325 325 326 326 326 327 328 329 329 329 328 329 330 331 331
324 322 322 321 321 321 325 326 325 324 326 326 328 330 330 329 327 326 326 327 326 327 328 329 329 329 328 327 328 327 328 328
Wind_Speed
18 22 29 32 29 25 20 21 17 12 10 7 9 9 9 12 12 13 10 11 13 11 10 12 12 13 13 16 17 20 22 20
13 19 16 20 27 25 22 18 13 8 4 5 8 10 9 10 13 13 11 13 12 12 10 11 11 11 11 13 17 21 21 20
23 25 23 29 29 26 23 17 10 4 2 4 5 6 11 14 14 12 12 13 15 12 13 12 11 11 12 12 17 21 21 19
13 22 29 32 30 27 21 15 8 3 3 4 5 7 10 13 14 14 15 14 16 14 13 12 13 12 11 12 16 20 20 19
20 32 34 35 29 26 21 13 8 5 1 4 8 11 13 15 15 14 14 13 14 14 12 13 14 11 13 13 16 19 19 20
23 33 36 33 29 26 19 11 9 5 3 6 11 13 15 16 14 14 14 14 16 14 12 13 13 12 13 16 17 17 18 19
19 34 37 34 29 24 19 13 10 7 5 7 12 15 16 15 13 13 14 15 13 14 13 12 11 12 14 18 18 17 16 17
21 29 33 31 27 22 17 15 10 7 5 6 10 8 11 11 10 10 12 12 11 11 13 12 9 10 12 16 17 16 16 16
18 28 33 27 23 21 18 14 11 7 4 7 7 8 9 9 8 8 8 9 8 10 9 9 9 9 10 13 14 14 15 12
11 23 28 27 24 20 16 13 11 8 4 5 7 7 7 8 8 8 8 7 8 10 10 9 7 8 10 13 13 10 11 13
13 14 22 26 24 21 17 14 9 7 3 2 2 4 4 3 5 5 5 3 4 8 9 9 8 8 11 13 13 11 10 11
15 13 16 26 23 19 17 13 13 8 4 1 2 3 4 4 1 2 4 4 5 5 6 8 7 7 11 13 15 16 13 14
16 14 20 26 21 19 16 16 10 11 5 3 2 2 3 3 3 3 4 5 5 5 8 7 7 5 12 14 18 18 17 19
9 17 24 22 21 18 19 15 12 9 8 5 2 3 6 7 4 4 1 5 8 9 8 9 5 5 10 12 15 16 13 16
14 14 10 19 21 21 17 13 12 9 6 9 2 3 6 7 4 2 2 7 12 13 10 9 6 7 6 9 10 14 11 15
13 12 13 19 24 22 18 14 12 9 9 9 5 4 7 7 4 3 4 8 11 12 10 9 6 7 6 7 11 10 11 15
14 11 16 21 25 23 19 16 13 9 12 9 6 6 6 7 7 6 7 10 10 10 9 9 6 8 8 9 11 11 12 14
12 11 15 24 25 23 18 16 17 13 10 8 7 7 6 7 7 8 10 9 8 10 10 9 10 10 12 12 15 15 15 19
13 10 19 26 25 21 16 16 15 16 10 8 7 8 6 6 7 8 9 8 8 10 10 11 13 14 18 18 18 17 16 19
12 11 16 21 24 20 17 18 17 15 11 8 7 8 9 10 8 9 9 8 11 10 12 13 15 20 20 21 18 16 17 16
Wind_Direction
173 189 196 203 195 178 182 172 169 171 174 189 201 237 258 251 256 281 277 268 265 262 271 261 268 268 261 241 221 215 213 219
184 199 195 186 180 171 169 181 178 186 217 221 237 260 268 252 271 275 260 263 271 262 255 263 262 261 260 235 226 216 212 217
195 195 188 162 161 167 168 169 176 192 249 228 238 258 271 280 279 265 257 264 260 266 256 254 248 250 253 240 227 217 214 215
178 177 170 169 164 165 168 172 174 148 196 240 286 286 289 278 277 271 264 270 256 247 254 245 247 251 244 242 228 220 217 223
187 176 171 173 171 168 170 169 162 162 257 302 298 288 284 283 279 270 263 265 246 246 258 253 249 253 245 237 233 230 229 229
190 176 176 174 168 168 164 162 169 175 271 285 292 292 276 280 274 267 262 257 250 250 256 254 249 249 241 229 226 227 228 232
175 182 177 170 166 162 157 161 166 180 230 273 290 288 280 279 270 257 259 257 251 249 251 250 248 248 239 223 222 221 222 227
176 171 167 161 160 155 157 160 166 173 221 276 288 278 282 278 270 259 254 253 246 241 248 236 246 245 235 215 217 217 225 233
158 161 163 157 153 152 161 164 158 172 226 297 258 271 297 273 260 258 263 254 246 236 247 229 239 235 221 202 208 213 223 228
141 157 162 159 158 162 167 167 167 187 227 273 268 298 299 288 267 254 264 268 243 229 235 235 227 218 195 192 198 194 213 218
159 165 161 160 162 169 170 172 169 170 143 117 217 293 306 330 273 253 245 233 205 205 229 229 206 210 196 190 192 198 191 202
161 161 159 162 167 170 173 172 166 165 168 137 240 295 311 341 275 293 176 147 168 190 194 187 190 202 200 196 194 196 198 185
164 163 158 169 168 169 171 163 162 172 203 196 210 339 19 118 116 131 171 178 185 171 179 180 164 152 184 186 183 198 197 184
126 143 161 165 168 165 161 162 167 181 210 203 118 76 113 123 145 136 194 184 180 164 165 166 158 167 178 181 197 183 182 178
146 154 152 162 164 161 160 165 176 193 222 159 139 138 116 110 138 122 96 139 152 158 159 154 151 137 161 186 184 182 183 180
152 156 161 163 164 162 164 175 189 197 189 169 167 149 121 111 118 126 113 141 148 158 165 159 169 160 147 167 177 180 184 191
150 162 161 161 166 169 171 185 194 190 174 168 183 152 144 139 106 100 119 142 146 162 171 178 172 156 157 151 155 151 171 168
157 163 161 166 172 173 180 192 191 178 178 188 180 155 148 158 125 122 138 140 154 160 165 174 171 163 155 156 144 144 151 139
163 162 169 171 171 173 176 191 188 177 188 195 170 152 148 147 143 145 145 138 153 165 167 159 155 155 153 154 143 145 127 121
161 163 163 163 172 172 169 172 174 172 165 162 152 146 136 139 147 159 153 142 144 149 154 152 150 155 153 150 145 138 128 127